This is the latest recevied weather packets stored in our database for station/object KB2FWP. If no packets are shown the sender has not sent any weather packets the latest 10 day(s).
| Time | Temp. | Humidity | Pressure | Rain* | Wind** | Luminosity | Snow |
|---|---|---|---|---|---|---|---|
| 1787431540 | 24.44° C | 81% | 1016.6 hPa | 0 mm | - | - | - |
| 1787430640 | 24.44° C | 81% | 1016.8 hPa | 0 mm | - | - | - |
| 1787429740 | 24.44° C | 81% | 1016.7 hPa | 0 mm | - | - | - |
| 1787428837 | 24.44° C | 80% | 1016.8 hPa | 0 mm | - | - | - |
| 1787427945 | 25° C | 80% | 1016.8 hPa | 0 mm | - | - | - |
| 1787427035 | 25° C | 79% | 1017 hPa | 0 mm | - | - | - |
| 1787426134 | 24.44° C | 79% | 1017.2 hPa | 0 mm | - | - | - |
| 1787425237 | 25° C | 79% | 1017.4 hPa | 0 mm | - | - | - |
| 1787424332 | 25° C | 79% | 1017.5 hPa | 0 mm | - | - | - |
| 1787423428 | 24.44° C | 79% | 1017.6 hPa | 0 mm | - | - | - |
| 1787422529 | 24.44° C | 80% | 1017.9 hPa | 0 mm | - | - | - |
| 1787421621 | 23.33° C | 82% | 1018 hPa | 0 mm | - | - | - |
| 1787420718 | 23.33° C | 82% | 1018.3 hPa | 0 mm | - | - | - |
| 1787419818 | 22.78° C | 85% | 1018.3 hPa | 0 mm | - | - | - |
| 1787418918 | 22.78° C | 84% | 1018.2 hPa | 0 mm | - | - | - |
| 1787418016 | 22.22° C | 84% | 1018.2 hPa | 0 mm | - | - | - |
| 1787417115 | 22.78° C | 84% | 1018.5 hPa | 0 mm | - | - | - |
| 1787416214 | 22.22° C | 82% | 1018.5 hPa | 0 mm | - | - | - |
| 1787415322 | 22.78° C | 81% | 1018.6 hPa | 0 mm | - | - | - |
| 1787414413 | 22.78° C | 81% | 1018.7 hPa | 0 mm | - | - | - |
| 1787413529 | 22.78° C | 80% | 1018.5 hPa | 0 mm | - | - | - |
| 1787412616 | 22.78° C | 81% | 1018.7 hPa | 0 mm | - | - | - |
| 1787411713 | 22.78° C | 80% | 1018.8 hPa | 0 mm | - | - | - |
| 1787410807 | 22.22° C | 82% | 1018.7 hPa | 0 mm | - | - | - |
| 1787409906 | 22.22° C | 82% | 1018.9 hPa | 0 mm | - | - | - |
* Rain latest hour (hover to see other rain measurements)
** Current wind speed in m/s (hover to see current wind gust speed)